TimeIST,TemperatureF,Dew PointF,Humidity,Sea Level PressureIn,VisibilityMPH,Wind Direction,Wind SpeedMPH,Gust SpeedMPH,PrecipitationIn,Events,Conditions,WindDirDegrees,DateUTC
12:00 AM,51.8,48.2,88,29.71,6.2,SSW,12.7,-,N/A,,Mostly Cloudy,200,2012-10-01 23:00:00
12:30 AM,51.8,48.2,88,29.68,6.2,SSW,11.5,-,N/A,,Mostly Cloudy,200,2012-10-01 23:30:00
1:00 AM,51,49,88,29.69,12,SSW,11.2,,,,Partly Cloudy,200,2012-10-02 00:00:00
1:00 AM,51.8,48.2,88,29.68,6.2,SSW,10.4,-,N/A,,Mostly Cloudy,200,2012-10-02 00:00:00
1:30 AM,51.8,48.2,88,29.68,6.2,SSW,13.8,-,N/A,,Mostly Cloudy,200,2012-10-02 00:30:00
2:00 AM,51.8,48.2,88,29.65,6.2,SSW,12.7,-,N/A,,Mostly Cloudy,200,2012-10-02 01:00:00
2:30 AM,51.8,48.2,88,29.65,6.2,SSW,12.7,-,N/A,,Mostly Cloudy,200,2012-10-02 01:30:00
3:00 AM,51.8,48.2,88,29.65,6.2,SSW,12.7,-,N/A,,Scattered Clouds,210,2012-10-02 02:00:00
3:30 AM,50.0,46.4,87,29.65,6.2,South,9.2,-,N/A,,Partly Cloudy,190,2012-10-02 02:30:00
4:00 AM,50.0,46.4,87,29.62,6.2,South,10.4,-,N/A,,Scattered Clouds,190,2012-10-02 03:00:00
4:30 AM,50.0,46.4,87,29.62,6.2,South,11.5,-,N/A,,Scattered Clouds,190,2012-10-02 03:30:00
5:00 AM,50.0,48.2,94,29.62,6.2,South,10.4,-,N/A,,Scattered Clouds,180,2012-10-02 04:00:00
5:30 AM,50.0,48.2,94,29.59,6.2,South,9.2,-,N/A,Rain,Light Rain Showers,170,2012-10-02 04:30:00
6:00 AM,51.8,50.0,94,29.59,5.6,West,8.1,-,N/A,Rain,Light Rain Showers,260,2012-10-02 05:00:00
7:00 AM,51,50,96,29.59,12,South,8.9,,,Rain,Light Rain Showers,190,2012-10-02 06:00:00
7:00 AM,51.8,50.0,94,29.56,6.2,South,9.2,-,N/A,,Scattered Clouds,190,2012-10-02 06:00:00
7:30 AM,51.8,50.0,94,29.56,6.2,SSW,11.5,-,N/A,,Mostly Cloudy,200,2012-10-02 06:30:00
8:00 AM,51.8,48.2,88,29.56,6.2,SW,10.4,-,N/A,,Mostly Cloudy,230,2012-10-02 07:00:00
8:30 AM,51.8,48.2,88,29.56,6.2,SW,16.1,-,N/A,,Scattered Clouds,230,2012-10-02 07:30:00
9:00 AM,53.6,50.0,88,29.56,6.2,SW,10.4,-,N/A,,Scattered Clouds,220,2012-10-02 08:00:00
9:30 AM,53.6,48.2,82,29.56,6.2,SSW,10.4,-,N/A,,Partly Cloudy,210,2012-10-02 08:30:00
10:00 AM,53.6,48.2,82,29.56,6.2,SW,13.8,-,N/A,,Partly Cloudy,220,2012-10-02 09:00:00
10:30 AM,55.4,50.0,82,29.56,6.2,South,8.1,-,N/A,,Mostly Cloudy,170,2012-10-02 09:30:00
11:00 AM,55.4,48.2,77,29.56,6.2,South,13.8,-,N/A,,Mostly Cloudy,190,2012-10-02 10:00:00
11:30 AM,55.4,50.0,82,29.53,6.2,South,12.7,-,N/A,,Mostly Cloudy,190,2012-10-02 10:30:00
12:00 PM,55.4,48.2,77,29.53,6.2,SSW,12.7,-,N/A,,Mostly Cloudy,200,2012-10-02 11:00:00
12:30 PM,55.4,50.0,82,29.50,6.2,South,16.1,-,N/A,,Mostly Cloudy,190,2012-10-02 11:30:00
1:00 PM,56,49,69,29.51,12,SSW,17.9,,,Rain,Light Rain Showers,200,2012-10-02 12:00:00
1:00 PM,57.2,48.2,72,29.50,6.2,SSW,18.4,-,N/A,,Mostly Cloudy,200,2012-10-02 12:00:00
1:30 PM,55.4,50.0,82,29.47,6.2,South,15.0,-,N/A,Rain,Light Rain Showers,190,2012-10-02 12:30:00
2:00 PM,53.6,50.0,88,29.47,6.2,SSW,19.6,-,N/A,,Mostly Cloudy,210,2012-10-02 13:00:00
2:30 PM,57.2,50.0,77,29.44,6.2,SSW,17.3,-,N/A,,Mostly Cloudy,210,2012-10-02 13:30:00
3:00 PM,57.2,48.2,72,29.44,6.2,WSW,27.6,-,N/A,,Scattered Clouds,240,2012-10-02 14:00:00
3:30 PM,57.2,46.4,67,29.44,6.2,WSW,27.6,-,N/A,,Scattered Clouds,240,2012-10-02 14:30:00
4:00 PM,57.2,46.4,67,29.44,6.2,WSW,29.9,42.6,N/A,,Partly Cloudy,240,2012-10-02 15:00:00
4:30 PM,55.4,46.4,72,29.44,6.2,WSW,27.6,-,N/A,,Scattered Clouds,250,2012-10-02 15:30:00
5:00 PM,53.6,46.4,77,29.47,6.2,WSW,26.5,-,N/A,,Scattered Clouds,250,2012-10-02 16:00:00
5:30 PM,53.6,46.4,77,29.47,6.2,West,21.9,-,N/A,,Partly Cloudy,260,2012-10-02 16:30:00
6:00 PM,53.6,46.4,77,29.47,6.2,WSW,25.3,-,N/A,,Partly Cloudy,250,2012-10-02 17:00:00
6:30 PM,51.8,46.4,82,29.50,6.2,West,16.1,-,N/A,,Scattered Clouds,260,2012-10-02 17:30:00
7:00 PM,51,46,77,29.52,16,West,17.9,,,,Partly Cloudy,260,2012-10-02 18:00:00
7:00 PM,51.8,46.4,82,29.50,6.2,West,17.3,-,N/A,,Mostly Cloudy,260,2012-10-02 18:00:00
7:30 PM,50.0,44.6,82,29.53,6.2,West,12.7,-,N/A,,Partly Cloudy,260,2012-10-02 18:30:00
8:00 PM,50.0,44.6,82,29.53,6.2,WSW,10.4,-,N/A,,Scattered Clouds,250,2012-10-02 19:00:00
8:30 PM,50.0,44.6,82,29.53,6.2,WSW,11.5,-,N/A,,Scattered Clouds,250,2012-10-02 19:30:00
9:00 PM,50.0,44.6,82,29.53,6.2,WSW,13.8,-,N/A,,Scattered Clouds,250,2012-10-02 20:00:00
9:30 PM,50.0,44.6,82,29.53,6.2,WSW,10.4,-,N/A,,Scattered Clouds,240,2012-10-02 20:30:00
10:00 PM,50.0,44.6,82,29.56,6.2,WSW,15.0,-,N/A,,Partly Cloudy,250,2012-10-02 21:00:00
10:30 PM,50.0,44.6,82,29.56,6.2,WSW,16.1,-,N/A,,Scattered Clouds,240,2012-10-02 21:30:00
11:00 PM,50.0,44.6,82,29.56,6.2,WSW,16.1,-,N/A,,Partly Cloudy,250,2012-10-02 22:00:00
11:30 PM,50.0,44.6,82,29.56,6.2,WSW,15.0,-,N/A,,Scattered Clouds,240,2012-10-02 22:30:00